Location: Maccacari
(45.1333°N, 11.1333°E)
Time: 18:07:29
(UTC+00:00)

Tiros 1 despin weight - Pass Details

Date: 25 January 2021
Orbit: 593 x 642 km, 48.2° (Epoch: 25 February)

Event Time Altitude Azimuth Distance (km) Brightness Sun altitude
Rises 15:30:27 0° 272° (W) 2,880 ? 5.7°
Reaches altitude 10° 15:32:48 10° 276° (W) 1,967 ? 5.3°
Maximum altitude 15:37:15 58° 356° (N) 707 ? 4.7°
Drops below altitude 10° 15:41:39 10° 76° (ENE) 1,941 ? 4.0°
Sets 15:43:58 0° 80° (E) 2,838 ? 3.7°
